TimeCST,TemperatureF,Dew PointF,Humidity,Sea Level PressureIn,VisibilityMPH,Wind Direction,Wind SpeedMPH,Gust SpeedMPH,PrecipitationIn,Events,Conditions,WindDirDegrees,DateUTC
12:55 AM,40.1,23.2,51,30.17,10.0,North,20.7,28.8,N/A,,Clear,350,2012-12-29 06:55:00
1:55 AM,39.7,19.8,45,30.21,10.0,North,15.0,18.4,N/A,,Clear,360,2012-12-29 07:55:00
2:55 AM,39.0,18.1,43,30.23,10.0,North,13.8,-,N/A,,Clear,360,2012-12-29 08:55:00
3:55 AM,39.2,17.2,41,30.25,10.0,North,12.7,-,N/A,,Scattered Clouds,360,2012-12-29 09:55:00
4:55 AM,38.1,17.6,44,30.29,10.0,North,4.6,-,N/A,,Clear,10,2012-12-29 10:55:00
5:55 AM,37.2,17.6,45,30.34,10.0,South,3.5,-,N/A,,Clear,180,2012-12-29 11:55:00
6:55 AM,34.3,20.1,56,30.38,10.0,South,4.6,-,N/A,,Partly Cloudy,180,2012-12-29 12:55:00
7:55 AM,36.1,19.8,51,30.41,10.0,South,3.5,-,N/A,,Clear,180,2012-12-29 13:55:00
8:55 AM,38.8,19.9,47,30.43,10.0,South,4.6,-,N/A,,Clear,170,2012-12-29 14:55:00
9:55 AM,41.7,20.5,43,30.46,10.0,Calm,Calm,-,N/A,,Clear,0,2012-12-29 15:55:00
10:55 AM,45.1,18.5,35,30.48,10.0,Calm,Calm,-,N/A,,Partly Cloudy,0,2012-12-29 16:55:00
11:55 AM,46.2,18.9,34,30.47,10.0,Calm,Calm,-,N/A,,Partly Cloudy,0,2012-12-29 17:55:00
12:55 PM,49.6,19.8,31,30.42,10.0,North,9.2,-,N/A,,Clear,350,2012-12-29 18:55:00
1:55 PM,49.6,19.6,31,30.40,10.0,NNW,8.1,-,N/A,,Partly Cloudy,340,2012-12-29 19:55:00
2:55 PM,51.4,19.6,29,30.40,10.0,NNW,10.4,-,N/A,,Clear,340,2012-12-29 20:55:00
3:55 PM,51.4,19.6,29,30.39,10.0,NNE,6.9,-,N/A,,Partly Cloudy,30,2012-12-29 21:55:00
4:55 PM,50.7,19.8,30,30.40,10.0,NNE,8.1,-,N/A,,Clear,20,2012-12-29 22:55:00
5:55 PM,48.2,20.7,34,30.41,10.0,Calm,Calm,-,N/A,,Clear,0,2012-12-29 23:55:00
6:55 PM,45.3,22.8,41,30.42,10.0,SSE,3.5,-,N/A,,Clear,150,2012-12-30 00:55:00
7:55 PM,44.8,22.3,41,30.43,10.0,Calm,Calm,-,N/A,,Clear,0,2012-12-30 01:55:00
8:55 PM,42.4,23.5,47,30.45,10.0,Calm,Calm,-,N/A,,Clear,0,2012-12-30 02:55:00
9:55 PM,39.0,24.8,57,30.44,10.0,Calm,Calm,-,N/A,,Clear,0,2012-12-30 03:55:00
10:55 PM,36.1,24.3,62,30.45,10.0,NNW,4.6,-,N/A,,Clear,340,2012-12-30 04:55:00
11:55 PM,33.6,24.3,69,30.45,10.0,NW,5.8,-,N/A,,Scattered Clouds,320,2012-12-30 05:55:00